This is the latest recevied weather packets stored in our database for station/object EA5JUX. If no packets are shown the sender has not sent any weather packets the latest 10 day(s).
| Time | Temp. | Humidity | Pressure | Rain* | Wind** | Luminosity | Snow |
|---|---|---|---|---|---|---|---|
| 1778169137 | 16.67° C | 85% | 1009.4 hPa | 0 mm | - | - | - |
| 1778168837 | 16.67° C | 86% | 1009.2 hPa | 0.25 mm | - | - | - |
| 1778168537 | 16.67° C | 87% | 1009.2 hPa | 0.25 mm | - | - | - |
| 1778168258 | 16.67° C | 88% | 1009.3 hPa | 0.25 mm | - | - | - |
| 1778167936 | 16.67° C | 88% | 1009.4 hPa | 0.51 mm | - | - | - |
| 1778167637 | 16.11° C | 88% | 1009.5 hPa | 1.27 mm | - | - | - |
| 1778167337 | 16.11° C | 88% | 1009.2 hPa | 1.78 mm | - | - | - |
| 1778167037 | 16.11° C | 89% | 1009.5 hPa | 2.29 mm | - | - | - |
| 1778166737 | 16.11° C | 89% | 1009.4 hPa | 3.05 mm | - | - | - |
| 1778166437 | 16.11° C | 89% | 1009.2 hPa | 4.57 mm | - | - | - |
| 1778166137 | 16.11° C | 89% | 1009.4 hPa | 5.59 mm | - | - | - |
| 1778165837 | 16.11° C | 89% | 1009.2 hPa | 6.1 mm | - | - | - |
| 1778165537 | 15.56° C | 88% | 1009.3 hPa | 6.35 mm | - | - | - |
| 1778165237 | 15.56° C | 89% | 1009.3 hPa | 6.1 mm | - | - | - |
| 1778164936 | 15.56° C | 89% | 1009.4 hPa | 6.1 mm | - | - | - |
| 1778164637 | 15.56° C | 89% | 1009.5 hPa | 6.1 mm | - | - | - |
| 1778164336 | 15.56° C | 89% | 1009.8 hPa | 5.59 mm | - | - | - |
| 1778164036 | 15.56° C | 89% | 1009.8 hPa | 4.83 mm | - | - | - |
| 1778163736 | 16.11° C | 88% | 1009.7 hPa | 3.81 mm | - | - | - |
| 1778163436 | 16.11° C | 88% | 1009.8 hPa | 3.56 mm | - | - | - |
| 1778163136 | 16.11° C | 87% | 1009.9 hPa | 2.29 mm | - | - | - |
| 1778162836 | 16.67° C | 86% | 1009.8 hPa | 1.27 mm | - | - | - |
| 1778162556 | 16.67° C | 85% | 1009.7 hPa | 0.25 mm | - | - | - |
| 1778162237 | 16.67° C | 84% | 1009.6 hPa | 0 mm | - | - | - |
| 1778161937 | 16.67° C | 83% | 1009.4 hPa | 0 mm | - | - | - |
* Rain latest hour (hover to see other rain measurements)
** Current wind speed in m/s (hover to see current wind gust speed)